Theta_e
317 317 317 316 317 317 317 318 318 318 319 319 319 319 320 320 321 321 321 321 321 321 321 321 321 321 321 321 321 322 321 317 318 319 320 322 330 344 359 355 351 355 366 347 349 343 339 339 339 344 340 336 335 331 336 336 335 333 322 318 314 316 316 321 319 316 317 312 314 317 320 323 322 329 330 335 333 333 333 332 336 339 341 343 344 347 348 349
317 317 316 316 316 316 318 318 318 318 318 319 319 319 319 320 320 320 321 320 320 320 320 321 321 321 321 320 322 322 319 318 317 318 318 329 344 346 350 357 357 356 362 337 342 337 337 336 338 340 337 330 337 329 336 331 336 326 322 319 315 319 320 324 323 322 317 314 316 319 322 323 324 327 329 327 328 329 329 331 334 336 339 343 344 345 346 347
316 316 316 316 316 317 317 317 318 318 318 318 318 319 319 319 320 320 320 320 320 320 320 320 320 321 321 321 321 321 318 318 320 319 325 344 346 348 352 356 356 361 342 333 332 337 336 336 338 338 336 330 332 327 332 335 330 328 322 317 319 324 324 324 325 322 324 320 318 318 319 320 321 323 328 326 325 327 326 329 332 334 334 338 341 343 344 345
316 315 315 316 316 317 317 318 318 318 317 318 318 319 319 319 319 319 319 319 319 320 320 320 320 321 320 321 322 320 318 319 314 319 334 361 354 350 355 357 356 361 342 331 328 333 338 337 338 339 334 327 326 329 325 329 324 328 323 318 318 323 320 323 325 324 325 323 318 318 320 317 318 320 323 324 322 324 330 335 333 333 335 337 340 342 343 344
316 315 315 316 316 317 317 317 317 317 318 318 318 318 318 319 319 319 318 319 319 319 319 319 320 320 320 321 320 319 317 308 312 323 328 357 355 354 354 355 359 348 337 330 327 326 333 333 334 335 330 322 325 325 324 329 329 327 323 325 323 324 322 325 325 326 325 325 323 318 316 316 321 322 323 323 318 320 329 336 338 338 338 338 339 341 343 343
315 315 315 316 316 316 317 316 317 317 317 317 318 318 318 318 318 318 318 318 318 318 319 320 320 320 321 320 319 318 311 296 315 326 359 355 353 351 353 355 359 339 331 327 325 324 324 329 331 328 325 323 323 320 323 329 329 318 323 324 325 325 322 324 325 325 325 323 322 317 319 320 318 316 322 322 321 326 337 340 340 340 341 341 342 343 342 343
315 315 315 315 316 316 316 316 316 316 316 317 317 317 317 317 317 317 317 317 318 318 319 320 320 320 320 321 319 318 315 308 315 324 355 359 357 354 358 361 365 337 329 325 325 323 323 324 327 327 326 324 322 320 322 326 328 323 319 323 324 326 323 326 325 323 318 322 322 323 320 317 317 315 322 319 323 333 339 341 341 342 342 343 341 342 342 343
315 315 315 315 315 316 316 316 316 316 317 316 317 317 318 317 317 317 317 317 317 319 319 320 320 320 321 319 318 314 316 314 320 320 357 358 351 361 355 349 339 334 328 325 324 323 324 323 323 326 322 319 321 320 321 320 327 321 320 324 325 325 325 326 325 318 319 323 326 323 320 315 318 319 322 320 329 338 339 341 341 341 341 341 340 341 342 343
314 315 315 315 315 316 316 316 316 316 316 316 317 317 316 316 316 316 317 317 318 318 319 320 320 321 323 318 312 305 304 314 320 331 343 352 339 348 339 335 333 330 328 327 327 325 325 324 325 326 318 319 323 320 320 317 313 324 322 324 325 324 325 325 325 324 322 323 325 320 318 317 318 322 319 322 330 338 339 339 339 340 339 339 340 342 341 341
314 314 314 315 315 315 315 316 316 316 316 317 316 316 315 316 316 316 317 317 318 318 319 321 322 323 319 319 320 306 313 320 324 332 345 333 333 337 335 333 329 328 326 326 327 326 326 328 326 328 325 321 323 320 322 318 314 320 320 324 323 322 324 325 324 324 324 323 322 318 317 316 319 318 311 325 331 338 337 336 337 338 338 339 340 341 342 341
314 314 314 314 315 315 315 315 316 316 316 316 315 315 315 316 316 316 316 317 318 319 320 322 324 323 317 320 312 303 317 317 328 331 332 331 332 332 329 327 330 327 324 324 324 327 330 331 330 327 323 318 320 319 319 319 321 320 320 321 322 322 324 325 323 322 322 321 324 322 317 317 318 316 312 322 331 337 335 335 334 335 337 338 339 340 341 341
314 314 314 314 314 315 315 315 315 316 316 315 315 315 315 315 315 315 316 317 318 319 321 322 324 321 320 317 314 311 322 322 323 324 330 332 328 329 328 324 329 326 324 320 322 326 330 331 330 323 313 322 313 318 317 321 320 319 319 313 315 319 319 321 320 322 322 320 325 323 318 315 312 309 318 321 330 334 335 334 334 334 335 336 337 339 339 339
314 314 314 314 314 315 315 315 316 316 315 314 314 314 314 314 315 315 316 316 318 320 321 323 324 323 320 313 316 322 321 320 319 320 320 326 329 329 328 327 326 326 323 321 321 324 327 329 327 321 322 318 316 312 318 321 319 319 316 311 311 311 311 319 322 322 320 321 325 322 306 309 311 313 319 321 325 330 331 331 333 334 334 335 335 337 338 338
314 314 314 314 315 315 315 315 316 315 314 314 314 313 314 314 314 315 316 317 319 321 323 325 323 322 319 310 316 319 322 322 322 320 319 321 321 323 324 325 326 326 326 323 323 324 326 326 324 321 321 315 312 319 315 315 317 311 313 312 305 305 305 318 320 321 318 323 323 322 308 310 313 315 319 321 326 327 326 329 331 331 333 333 334 336 337 337
314 314 314 314 314 315 315 315 314 313 314 314 313 313 313 312 314 316 318 319 321 323 325 327 322 320 316 316 326 327 345 330 320 320 321 319 319 319 321 322 322 324 326 325 324 324 325 323 320 314 310 316 315 311 307 308 309 309 305 301 306 304 306 314 321 320 316 321 323 319 310 311 317 315 320 321 323 327 325 328 329 329 332 332 334 335 336 336
314 313 314 314 314 314 314 314 313 313 314 313 312 312 313 314 316 318 320 320 323 326 326 321 320 320 317 312 321 344 334 327 325 327 326 324 320 318 321 321 321 321 322 321 324 324 324 322 315 311 311 312 309 305 303 302 303 307 304 304 303 305 307 310 318 320 320 320 321 317 310 316 317 323 320 321 321 325 323 325 328 328 330 331 333 335 335 335
313 313 313 314 314 314 314 313 313 313 312 312 312 312 313 316 318 320 322 323 323 326 324 320 325 322 309 321 331 320 319 325 329 327 325 323 321 320 319 319 318 317 319 319 320 320 319 317 319 314 312 306 306 306 300 297 299 301 305 302 306 305 307 305 316 319 318 319 315 318 314 317 319 322 320 321 321 320 322 323 326 327 328 330 332 334 334 334
313 313 313 313 314 314 314 313 313 312 311 310 310 311 310 316 321 319 321 319 319 324 324 325 320 314 312 323 315 316 320 320 322 322 320 321 322 320 319 317 317 316 316 314 317 314 316 312 314 306 307 306 305 303 298 296 299 300 301 301 304 307 308 308 310 315 317 318 315 314 313 317 319 322 320 320 321 320 320 321 324 324 326 328 331 333 334 334
314 313 313 313 313 313 313 313 312 311 310 310 311 314 318 321 321 318 319 318 319 317 310 313 313 300 302 315 324 324 324 322 323 322 319 320 321 321 320 320 316 313 310 309 310 312 313 310 311 305 302 303 303 304 302 304 306 305 306 304 305 303 305 307 313 317 316 314 313 313 310 313 316 319 321 319 319 318 319 321 322 323 325 326 329 331 333 333
314 313 313 313 313 313 313 313 312 311 310 307 306 308 318 315 313 320 318 321 317 316 317 318 318 313 312 314 315 322 327 328 317 319 321 323 319 317 317 317 315 314 310 305 308 310 313 304 302 302 303 306 307 307 307 308 309 309 308 306 306 306 307 312 313 316 318 313 312 313 313 313 316 317 320 319 318 317 319 319 320 322 324 325 327 329 332 333
314 313 313 313 313 313 312 312 311 310 309 307 306 308 306 306 299 298 302 304 308 314 314 314 316 317 314 318 321 321 318 318 319 318 320 324 319 315 312 314 312 307 308 310 308 313 312 303 303 306 308 308 308 308 308 308 309 308 307 306 305 307 305 311 312 316 317 312 309 313 314 314 316 318 319 320 318 316 317 319 320 321 324 324 325 326 330 333
313 313 313 313 312 312 312 311 311 309 309 307 308 309 312 309 309 310 306 299 305 308 307 307 309 307 314 318 322 323 321 314 314 317 321 321 317 309 309 310 308 305 309 310 309 306 304 302 305 308 310 310 309 309 308 307 306 307 306 305 305 305 309 312 313 316 316 314 310 314 313 313 317 319 319 320 318 318 319 320 321 321 323 324 324 325 328 331
313 312 313 312 312 312 311 310 309 308 307 313 307 306 305 310 313 312 309 303 300 306 305 305 304 305 306 311 313 317 310 310 309 315 318 319 313 311 309 306 305 307 309 309 304 302 299 303 307 310 310 308 307 307 307 307 307 305 305 304 302 306 305 302 311 315 316 313 311 313 312 312 317 319 319 320 320 319 320 321 322 323 322 323 324 325 326 330
312 312 312 312 312 311 311 309 307 310 307 306 306 305 310 313 312 312 305 297 297 303 306 307 306 306 305 305 311 310 308 309 311 312 321 316 310 311 308 307 305 306 305 307 306 304 302 306 310 309 309 307 305 306 305 304 303 306 306 305 305 305 307 308 308 313 316 316 316 314 311 310 314 315 316 320 322 322 320 320 321 324 324 325 326 326 327 329
313 312 312 312 311 311 308 307 308 305 307 308 308 313 314 313 313 312 302 299 300 300 310 308 310 309 309 314 313 307 309 311 312 316 319 316 312 310 307 311 307 303 305 308 308 305 305 309 310 308 307 307 306 304 305 304 302 304 308 308 307 308 307 309 311 310 309 308 313 312 302 302 312 315 316 318 320 320 321 319 319 321 324 324 324 325 327 329
312 313 313 312 312 309 308 304 305 306 306 306 309 313 314 314 314 312 303 295 292 303 309 301 311 306 315 307 310 309 310 305 313 315 318 319 320 313 310 306 308 303 306 306 306 306 306 310 309 307 306 305 305 304 305 306 301 301 304 310 309 309 308 308 308 308 303 302 310 314 302 299 310 313 315 317 319 319 321 321 322 321 323 324 324 326 327 327
313 313 312 312 311 309 302 298 305 307 304 305 312 314 314 315 316 311 299 294 292 306 304 310 309 308 313 310 309 310 296 301 313 315 314 320 315 317 306 304 307 309 311 310 305 303 310 308 307 307 306 304 303 302 305 306 302 300 308 310 310 309 308 308 308 308 307 313 313 313 308 301 302 309 316 318 317 318 319 320 322 324 323 324 325 327 327 328
313 312 311 311 310 308 303 305 305 303 305 310 313 313 313 315 314 309 297 290 293 313 303 305 310 315 312 310 311 305 306 310 304 309 315 316 317 311 308 305 305 306 309 307 297 306 309 307 307 305 304 303 302 304 306 307 303 303 308 310 309 310 309 309 307 306 306 308 303 309 312 302 301 309 316 317 315 316 317 319 321 323 325 324 325 327 328 329
312 312 311 311 309 308 308 306 306 305 310 312 312 312 314 314 308 299 294 288 305 305 317 306 318 311 310 310 307 307 307 310 304 309 314 315 315 311 303 306 308 308 309 308 302 305 309 309 309 308 305 302 305 306 307 307 303 306 309 310 310 311 310 309 306 305 305 302 298 305 309 301 300 308 311 315 314 314 317 320 323 324 326 325 326 327 329 330
312 312 311 310 307 307 307 307 303 307 309 309 310 314 313 308 302 293 290 285 306 299 308 309 308 305 308 304 304 306 304 307 310 311 311 309 310 312 310 313 308 306 306 309 307 307 310 314 314 310 306 307 306 307 308 307 307 308 308 307 307 308 307 308 307 304 303 298 301 309 310 307 297 306 310 311 313 316 320 321 324 325 326 327 327 327 328 329
312 310 310 309 304 306 305 301 305 310 310 311 314 313 307 303 294 290 286 296 306 306 312 306 305 310 305 303 300 305 305 306 307 309 305 309 307 308 308 305 310 304 303 304 304 307 308 309 309 310 313 311 309 307 309 309 308 307 304 303 302 301 304 302 305 304 296 294 303 310 310 310 299 302 311 315 319 320 321 321 322 323 325 327 328 328 328 329
309 308 309 307 307 309 302 301 307 310 309 312 313 309 301 290 294 286 290 309 296 303 305 304 309 307 305 306 304 303 302 305 307 306 303 303 302 301 302 299 301 295 296 298 298 305 304 305 309 310 316 311 307 305 304 308 307 305 303 301 296 293 297 293 296 294 294 294 301 306 307 303 304 308 313 317 318 320 321 323 323 324 325 326 328 329 330 330
308 307 307 308 310 308 308 309 311 311 312 312 310 306 295 289 284 290 292 300 298 309 304 311 307 307 307 304 303 305 306 302 307 306 307 305 303 302 305 304 305 302 293 299 299 299 301 307 308 308 310 313 310 301 299 299 303 302 299 298 294 291 291 288 291 296 295 302 305 305 307 301 306 310 316 316 319 321 322 323 325 325 324 325 329 330 330 330
307 307 306 309 310 311 312 314 314 314 312 312 305 300 293 286 287 302 294 296 298 305 306 305 306 307 308 302 304 307 302 306 306 305 307 303 302 299 302 304 306 303 302 300 297 298 293 295 303 306 302 311 309 307 304 302 301 302 304 301 298 296 295 290 292 290 293 294 301 307 302 296 300 301 317 318 320 322 323 324 324 325 326 326 329 331 331 330
306 307 309 310 311 312 314 315 315 315 312 306 301 295 286 285 292 293 295 298 301 303 301 306 304 304 303 306 308 309 308 302 307 305 305 304 300 301 300 301 305 306 305 297 301 300 299 299 305 310 309 310 308 310 310 306 301 304 305 304 299 298 302 294 297 296 298 296 298 300 300 304 303 314 319 320 320 320 322 322 324 323 326 326 327 329 330 330
306 307 309 307 309 313 315 315 316 315 309 303 296 291 287 291 290 296 296 304 304 301 300 300 301 301 301 302 307 307 311 305 305 304 304 305 306 303 306 305 305 306 303 298 301 296 299 297 308 309 310 308 309 311 310 310 296 299 302 298 301 305 304 300 303 304 304 298 295 307 305 307 312 313 316 317 317 318 319 320 321 322 324 326 326 328 329 329
304 306 304 308 310 313 315 315 315 313 308 301 294 289 294 295 298 297 302 299 300 300 299 293 296 298 299 299 301 305 306 308 305 303 299 307 303 307 306 307 310 307 308 304 300 305 296 297 306 307 305 309 311 311 311 310 308 302 298 301 308 308 307 301 294 297 295 291 296 301 299 300 301 297 312 314 315 316 317 318 320 320 323 325 326 328 329 329
304 304 306 307 311 316 316 317 315 311 306 299 292 297 300 295 301 299 302 301 301 301 295 293 295 299 296 299 300 303 306 303 303 304 301 305 301 310 307 306 310 309 309 310 302 302 303 295 302 307 308 309 311 310 307 310 310 304 301 308 300 294 295 300 301 291 291 291 292 297 300 301 302 304 309 310 312 314 316 318 319 319 322 325 326 328 329 331
305 304 299 306 311 312 314 318 312 309 302 296 293 293 298 299 302 301 302 302 301 299 295 296 295 298 298 295 298 304 305 301 304 303 300 303 299 308 308 309 307 311 310 309 305 304 305 296 298 307 307 308 309 306 298 302 307 309 308 304 307 302 298 296 298 299 298 291 294 294 298 297 307 304 310 311 313 314 315 316 318 319 321 324 326 328 329 331
300 297 296 307 310 311 311 311 309 305 300 293 295 295 301 298 301 304 304 303 300 298 297 297 299 296 298 298 299 297 302 304 304 303 303 304 303 310 308 311 308 309 310 310 307 308 301 303 292 301 309 308 301 304 301 301 299 301 301 300 301 301 304 302 303 299 294 293 291 292 291 298 306 310 311 313 314 316 316 316 318 319 321 323 325 328 330 331
302 296 297 308 310 310 308 303 300 298 295 297 298 297 299 297 300 302 304 305 303 306 301 299 298 296 297 296 296 299 297 299 302 303 304 304 304 300 309 310 311 308 310 309 306 306 300 300 295 299 300 301 303 308 307 306 305 303 301 300 301 298 295 294 293 302 300 296 290 291 292 302 308 316 315 313 316 317 318 318 319 320 321 322 325 328 330 330
297 291 295 307 308 308 301 294 295 300 298 295 294 297 296 304 298 299 301 303 302 300 304 301 301 300 299 298 298 298 298 296 298 300 305 303 307 306 308 313 311 312 308 304 304 308 305 306 299 296 299 300 306 309 311 310 309 306 305 302 303 300 299 295 287 293 299 300 302 300 296 296 310 314 313 315 320 318 319 320 319 320 320 322 324 328 330 331
295 292 303 306 307 305 298 292 295 295 294 298 302 301 302 300 299 301 299 300 298 301 300 300 300 299 301 300 300 299 299 296 298 296 299 304 307 309 311 311 312 311 311 307 308 308 321 300 297 299 302 306 308 310 310 310 308 305 305 305 303 300 300 297 296 300 297 299 295 295 295 297 310 312 315 320 321 319 320 321 320 321 321 322 321 328 329 329
296 295 297 305 307 305 296 288 289 292 295 298 297 296 299 298 297 296 297 298 298 298 298 298 300 302 300 303 301 298 301 294 299 299 299 303 302 309 311 311 311 309 309 307 304 309 302 302 299 294 294 296 301 304 305 308 307 304 302 304 305 304 303 302 301 306 297 298 298 294 291 295 310 315 320 317 321 315 318 320 321 320 320 320 321 325 330 329
296 298 298 301 306 302 293 295 293 291 293 293 292 292 294 296 299 298 298 297 301 300 299 298 300 301 300 303 301 302 302 299 296 301 301 301 301 306 306 309 312 309 311 315 326 311 305 302 299 293 290 288 289 291 293 297 301 303 305 304 304 304 302 299 295 296 291 299 301 296 295 299 308 312 312 318 315 318 319 318 321 321 320 321 321 327 329 329
292 286 293 295 299 299 298 300 296 293 292 292 291 293 296 294 297 300 300 299 301 301 299 299 301 301 300 299 296 296 298 302 298 298 299 299 301 304 305 305 307 306 321 331 326 312 304 305 302 299 296 294 297 300 311 309 302 300 302 304 303 304 304 302 299 294 291 296 299 298 301 303 307 308 309 313 314 314 313 319 318 319 323 325 328 330 328 330
297 289 290 288 295 295 294 296 294 295 291 294 287 293 291 292 294 296 301 295 300 298 298 299 298 296 295 296 294 296 299 298 301 299 299 298 300 301 304 305 306 311 323 325 331 313 305 301 303 302 301 302 306 306 307 308 303 303 303 303 305 304 303 302 297 295 299 297 287 297 304 302 303 306 310 311 312 313 318 318 317 320 327 327 328 328 337 331
288 293 295 297 289 286 289 291 294 292 294 294 290 294 291 291 293 291 297 299 299 300 295 295 296 297 296 294 295 292 295 295 297 294 297 297 297 300 298 304 305 312 314 311 319 311 306 300 304 304 302 303 305 306 308 307 306 305 304 304 303 304 303 300 300 301 302 296 294 298 306 307 305 307 308 311 315 313 319 317 316 317 330 332 330 329 330 331
295 295 294 298 290 292 292 293 294 293 292 293 292 292 290 291 291 294 294 294 295 295 296 290 293 294 295 296 295 293 294 290 291 295 295 294 295 296 296 298 304 306 306 303 310 314 307 302 306 305 303 303 304 304 305 305 305 305 304 304 304 304 303 303 302 303 302 301 302 302 304 307 312 311 310 313 319 318 321 323 318 319 330 332 333 332 330 331
291 291 291 296 295 292 293 293 293 292 290 294 289 290 291 291 290 293 295 293 289 291 296 292 292 294 295 296 295 292 294 295 294 291 296 295 295 297 296 298 298 303 304 302 303 308 306 305 309 305 302 301 304 305 305 304 303 303 304 304 305 305 304 304 304 303 305 302 303 303 302 302 307 311 311 314 318 321 322 321 323 321 328 331 333 333 334 335
298 299 297 291 288 291 293 292 291 291 289 290 289 291 292 290 290 294 293 296 293 291 293 291 294 294 296 295 294 294 297 296 296 295 297 296 292 298 295 297 302 298 301 302 304 305 307 304 307 306 299 300 304 304 304 304 304 303 302 304 303 303 301 303 302 304 302 301 304 303 300 301 305 310 312 312 316 319 317 321 319 324 326 329 327 329 336 337
301 305 300 296 287 293 289 292 292 290 287 291 292 291 291 292 293 294 290 295 296 296 296 295 295 294 293 294 293 295 297 297 297 298 298 299 301 301 302 302 302 300 300 301 304 302 304 303 300 299 296 298 303 305 304 303 302 299 300 303 305 304 305 304 304 306 305 304 300 298 298 303 306 314 310 309 310 310 315 317 318 322 322 319 320 321 327 334
Wind_Speed
21 21 21 21 22 22 21 21 21 21 21 21 22 22 22 22 22 22 21 22 22 21 21 22 21 21 20 20 20 19 19 9 12 6 8 18 11 12 8 8 15 15 11 6 8 10 11 11 13 13 9 6 6 7 6 8 5 2 1 1 5 5 8 6 8 1 10 8 6 6 7 11 13 11 12 14 13 12 12 10 12 16 12 17 18 18 18 17
21 21 22 22 22 20 21 21 21 22 22 22 22 22 22 22 22 22 22 22 22 22 21 21 23 21 21 20 19 19 14 9 10 12 18 22 16 20 16 8 14 17 11 7 10 12 12 12 13 13 9 7 7 7 7 4 7 4 2 3 7 4 7 12 12 4 5 9 9 9 8 8 11 12 12 11 13 12 10 12 16 15 19 19 20 20 19 19
22 21 22 22 21 21 22 21 21 22 22 23 23 23 22 22 22 22 23 23 23 22 21 20 21 22 20 20 17 16 11 6 8 14 20 20 22 18 16 13 16 17 14 11 10 12 13 13 13 13 9 8 8 9 10 3 6 6 4 5 7 6 9 8 12 5 6 5 9 9 11 9 9 7 9 13 13 15 12 10 15 18 21 22 21 20 19 18
22 23 21 20 20 21 21 21 21 22 22 22 22 23 23 23 23 23 23 23 23 22 21 21 20 21 21 19 15 13 7 7 5 7 2 4 14 18 15 17 17 16 11 10 8 11 12 12 13 14 9 9 8 12 9 6 4 3 5 7 5 6 6 9 12 3 2 4 10 4 9 11 10 6 7 15 13 12 15 16 17 21 22 22 20 20 18 18
23 23 21 21 21 22 22 22 22 23 22 22 22 22 22 23 24 23 23 22 22 22 22 20 20 20 20 16 13 7 6 5 2 2 2 10 16 18 18 17 17 12 12 8 7 10 12 14 13 12 9 7 10 9 9 10 8 3 10 12 7 5 10 14 6 3 7 3 2 7 11 9 7 7 10 16 12 11 16 20 21 20 21 22 21 20 17 18
24 23 22 22 22 23 23 23 23 23 23 22 23 23 23 23 23 24 23 22 22 22 21 20 20 20 19 16 10 6 1 2 2 2 4 7 15 17 18 18 18 11 8 7 9 10 12 14 13 10 8 9 10 12 10 12 12 6 9 10 10 9 9 6 6 8 7 6 5 7 5 10 9 4 12 13 14 12 21 23 23 21 19 19 19 19 18 18
24 23 23 23 23 24 24 24 24 23 23 23 23 23 23 23 23 23 23 22 22 21 20 19 19 19 17 16 5 3 4 10 10 4 6 6 9 10 9 8 9 8 9 8 10 9 12 13 14 12 11 12 13 12 11 13 14 10 9 11 13 11 9 12 12 3 3 9 6 5 11 7 8 4 5 8 9 20 25 23 23 21 19 19 19 19 19 18
22 23 23 24 24 25 25 25 25 24 24 24 23 23 22 23 23 23 23 23 22 21 20 18 18 17 14 7 2 3 5 9 17 12 11 9 8 8 10 6 9 7 9 12 11 13 11 14 14 11 11 10 8 12 10 12 15 14 14 16 15 12 12 9 6 8 4 7 8 11 5 4 8 6 1 5 21 24 24 21 22 22 20 18 17 19 18 17
23 23 24 25 25 26 26 26 26 25 25 24 24 23 23 23 23 23 23 23 22 22 20 17 17 13 8 3 2 6 9 15 16 9 15 10 8 9 10 8 9 11 9 11 11 12 10 11 13 11 8 12 12 12 12 10 10 17 19 13 13 14 12 8 12 9 9 2 6 9 5 7 5 10 3 8 20 26 22 22 22 20 21 18 18 18 17 16
24 25 25 26 26 27 27 27 27 27 27 27 26 26 25 23 21 21 22 23 22 22 19 16 13 9 5 2 4 4 10 8 8 13 12 12 10 9 9 8 12 8 8 10 9 12 13 10 12 10 13 11 10 14 12 14 8 7 15 15 17 12 10 9 12 7 11 5 9 5 7 6 8 7 3 15 19 24 24 21 20 20 19 18 16 16 15 18
26 26 25 25 26 26 26 27 27 28 28 28 29 28 26 25 22 22 23 23 22 21 18 15 10 6 4 4 3 9 7 8 4 9 13 13 14 10 12 9 13 8 10 8 11 13 13 14 10 7 8 7 6 12 12 10 10 16 10 14 13 14 13 13 11 6 2 7 11 7 6 10 10 3 5 13 20 25 23 21 18 17 17 16 18 15 13 14
27 27 25 27 26 26 27 27 27 27 28 28 29 28 27 26 26 24 22 21 22 21 15 9 5 4 5 4 9 13 5 6 1 1 7 13 13 13 12 10 12 9 10 9 10 11 13 13 12 8 5 6 12 9 12 12 11 15 19 9 10 13 15 12 9 11 9 5 15 9 9 8 7 5 11 14 18 23 24 21 19 17 15 14 14 13 14 13
26 26 27 27 28 27 27 28 27 28 27 27 28 27 28 28 26 26 22 21 16 15 11 9 6 4 4 7 13 18 17 16 17 14 8 10 10 9 8 7 11 11 10 9 8 11 12 12 11 10 11 7 3 7 4 7 11 13 10 4 6 6 7 11 7 7 11 8 16 11 4 7 8 8 15 15 17 21 22 19 19 16 15 15 14 11 13 12
27 26 28 29 29 29 29 28 29 28 28 28 28 27 25 26 28 26 22 19 19 15 11 6 3 4 4 10 4 6 13 14 18 17 16 12 8 9 8 6 7 10 9 9 9 6 13 11 10 10 7 7 6 6 11 8 8 9 9 7 3 1 3 8 9 11 14 11 16 14 5 6 6 3 17 13 17 20 18 17 16 16 16 15 14 13 13 13
27 27 28 29 29 29 29 29 28 28 28 28 27 28 28 27 26 24 21 15 12 11 8 5 4 3 4 10 9 21 29 15 14 16 12 12 12 7 11 9 9 8 8 10 6 7 6 6 10 8 6 5 9 9 9 6 5 8 9 6 1 2 6 10 12 12 13 12 16 14 3 9 4 6 16 13 14 19 18 17 16 15 16 14 14 16 14 13
25 28 28 28 28 29 28 28 29 28 28 29 30 30 31 27 24 22 19 14 10 3 4 4 6 6 6 12 8 10 5 8 15 19 14 13 13 10 9 11 8 8 6 4 4 5 6 6 8 6 6 6 8 6 5 4 6 7 9 3 3 5 9 9 18 13 15 11 13 12 4 8 4 4 13 13 15 18 17 16 17 16 16 15 13 14 13 12
25 27 29 29 29 28 29 28 29 29 30 30 31 33 32 26 21 16 12 8 5 5 6 2 5 6 4 3 10 10 6 11 7 9 12 13 9 9 6 7 8 10 8 8 7 6 6 8 3 5 7 6 5 5 4 6 7 7 3 6 7 8 10 7 11 11 11 16 10 10 6 7 5 8 10 14 15 15 16 16 17 15 13 14 13 14 14 12
25 24 27 28 29 29 29 30 29 29 30 32 30 28 26 27 18 2 4 3 4 5 7 7 5 3 13 10 6 12 11 8 9 8 13 11 13 11 8 7 6 10 9 9 9 9 7 7 4 5 4 8 7 8 9 9 10 7 5 7 10 10 7 6 8 12 11 16 16 12 9 11 10 12 12 15 16 13 15 15 16 15 14 15 13 14 15 12
24 25 26 28 29 28 28 30 31 31 29 32 30 26 21 6 2 3 4 4 4 2 1 5 6 7 4 3 11 9 5 8 7 9 10 11 11 9 9 8 9 11 9 8 5 12 6 6 4 6 10 10 12 11 11 10 10 13 13 8 8 8 6 9 8 9 13 12 12 13 9 8 10 11 12 15 15 12 13 15 14 15 15 15 14 13 14 12
26 24 28 28 29 29 29 29 31 31 27 21 17 15 3 2 0 2 3 5 6 8 12 6 12 9 13 18 14 11 10 10 8 9 6 8 10 9 11 10 10 10 9 9 7 14 4 10 10 12 10 9 11 13 11 12 13 14 13 11 8 10 10 13 11 9 17 10 9 12 11 9 9 8 9 16 13 12 12 14 13 14 15 15 14 14 16 15
26 28 27 28 28 29 28 30 31 32 28 13 10 5 6 10 8 7 10 11 13 15 16 19 16 17 17 13 16 15 11 2 10 8 8 10 8 8 8 6 7 9 9 9 9 8 10 10 13 11 11 11 10 12 13 13 14 16 12 11 10 9 9 10 5 16 13 8 7 8 9 7 9 7 8 15 15 13 13 13 13 15 16 16 16 14 15 15
25 26 27 28 30 30 30 31 32 32 28 6 2 3 7 5 1 5 6 12 7 11 14 20 17 19 15 20 22 16 13 11 8 8 8 13 9 9 7 8 7 9 8 9 9 7 12 14 10 12 11 12 13 12 15 17 15 14 12 11 10 11 11 10 8 13 13 11 7 11 11 7 10 9 7 16 14 12 13 13 13 15 17 15 16 16 15 14
27 26 26 27 29 32 31 33 31 34 7 3 6 10 9 10 7 5 6 10 20 12 21 21 19 21 19 15 17 11 13 14 10 11 9 11 8 11 10 11 9 8 9 13 11 9 10 12 13 11 13 13 14 15 13 16 14 10 11 9 10 10 7 7 6 10 11 9 9 11 10 6 8 8 6 10 14 10 14 15 14 15 16 17 18 16 15 17
26 26 25 26 28 31 33 33 33 13 6 12 13 12 10 8 9 9 8 6 12 15 16 18 20 20 20 17 9 16 14 10 10 12 11 11 9 9 7 11 11 10 11 14 15 12 11 4 14 13 13 15 15 15 14 11 11 15 14 10 11 11 12 12 4 3 12 9 13 12 8 4 9 10 7 5 9 11 13 14 13 14 15 17 18 17 17 18
27 28 26 25 26 30 33 34 8 8 14 15 6 13 13 13 9 9 8 6 6 11 10 16 11 11 17 10 5 12 13 10 14 9 8 13 12 6 10 5 7 12 12 12 14 15 14 12 12 18 15 14 15 13 16 11 10 11 17 17 12 11 12 12 11 9 5 6 8 11 4 5 8 14 14 9 6 8 10 12 12 12 13 14 16 17 16 16
27 26 25 25 25 25 33 12 5 13 17 8 8 14 14 13 11 10 5 3 9 7 8 8 10 10 9 12 12 10 6 12 16 13 9 14 11 10 4 8 5 10 15 13 12 7 10 11 13 15 18 16 16 14 12 15 11 10 12 17 18 17 15 12 12 10 6 5 5 9 8 3 7 11 13 10 10 12 5 12 11 11 12 14 14 15 16 16
27 27 25 24 22 22 14 5 10 16 11 7 13 15 14 14 7 12 3 4 6 8 7 5 8 0 7 13 15 11 8 14 11 12 15 10 15 9 8 9 6 6 7 6 4 10 9 15 15 15 15 17 14 14 12 14 12 11 6 12 16 18 19 17 15 11 3 5 12 14 7 6 4 8 9 12 14 12 10 8 11 11 11 14 15 16 17 17
26 26 25 24 22 16 8 9 12 9 11 13 12 14 15 10 11 7 3 4 3 3 6 4 4 2 3 14 16 16 7 10 9 16 18 10 11 12 13 11 12 11 9 7 13 6 10 13 16 17 15 12 15 10 9 14 12 8 9 11 15 16 18 16 13 10 4 3 4 9 9 3 4 5 8 10 14 15 15 13 12 11 13 13 14 15 17 17
25 25 26 24 25 23 14 6 7 11 8 9 14 15 10 10 8 2 2 4 5 3 3 6 4 2 2 17 16 15 10 6 7 11 16 14 14 5 12 15 9 10 13 13 10 6 9 11 13 18 12 12 7 13 14 14 14 10 12 11 11 12 14 15 11 10 9 7 6 8 10 6 4 6 9 8 10 14 15 15 13 11 13 14 15 13 16 16
25 25 25 23 20 9 5 8 13 20 14 14 14 12 13 10 3 1 2 7 5 2 3 3 1 6 7 15 13 15 15 8 7 8 16 14 14 15 6 9 10 9 10 14 14 12 9 10 13 10 14 9 8 10 14 15 13 5 12 14 11 11 10 10 11 5 4 8 6 13 19 13 6 8 11 10 12 11 12 11 9 9 10 11 13 16 13 14
25 25 22 22 9 7 10 9 13 10 7 9 13 13 8 3 3 3 8 4 4 3 2 3 6 9 10 15 11 15 15 10 10 5 10 12 13 15 8 8 8 8 8 9 12 15 15 13 8 7 10 9 9 9 13 13 13 13 7 9 7 7 7 6 3 7 9 9 4 8 12 13 10 5 9 9 8 13 13 14 14 13 13 13 12 13 15 14
26 27 28 15 14 8 6 9 8 9 11 13 13 8 4 2 3 8 5 2 7 6 11 7 10 10 15 14 11 14 14 14 9 9 11 11 11 14 16 11 10 10 11 10 11 9 15 14 10 10 7 12 10 11 8 14 11 12 10 6 9 4 4 8 5 7 9 11 5 6 6 7 11 7 12 12 11 13 13 14 19 19 18 16 15 16 14 13
28 28 35 19 12 7 15 17 13 11 11 13 8 5 3 3 9 12 7 4 3 1 2 5 9 12 11 12 11 11 13 12 12 12 12 14 12 13 16 15 10 11 7 9 9 8 9 12 14 12 10 12 11 10 6 8 11 10 10 10 7 8 6 6 6 4 3 4 8 8 7 12 1 4 16 17 15 16 17 16 17 21 19 17 15 16 15 14
29 30 16 13 9 13 13 11 11 9 9 8 5 4 4 7 8 8 13 10 13 18 14 9 10 7 12 11 12 9 11 12 11 12 13 11 15 11 14 19 15 12 8 5 11 9 7 10 15 13 10 9 16 11 6 3 10 13 8 9 9 7 6 8 4 8 8 4 5 14 10 3 10 5 16 16 17 16 16 17 14 18 21 19 16 16 18 16
31 26 14 14 10 12 13 13 13 12 8 6 4 7 8 14 3 2 5 9 8 15 19 21 15 14 10 13 12 14 10 8 15 12 13 13 13 12 13 16 20 13 9 9 6 6 16 9 5 16 8 8 14 13 7 8 6 11 11 6 9 15 5 5 4 4 2 4 9 7 6 6 8 8 14 15 16 13 12 13 16 14 19 19 18 17 16 16
21 12 16 10 10 11 10 10 11 11 8 6 6 8 15 4 4 4 5 6 9 6 14 20 17 12 11 8 11 15 17 10 16 14 10 15 12 14 13 11 17 21 12 13 4 8 7 11 8 13 19 14 9 12 12 10 9 5 8 15 16 4 6 2 5 3 3 6 7 0 4 5 1 2 8 14 15 15 13 12 12 11 15 21 19 17 17 15
11 15 12 13 13 16 13 12 6 10 7 8 8 13 6 8 12 14 7 12 15 18 14 11 8 6 6 7 7 14 12 14 12 13 10 12 14 15 15 14 15 20 21 8 8 7 5 5 10 10 18 19 14 11 15 16 9 3 13 10 1 3 2 5 4 4 7 5 3 6 7 2 8 7 5 11 16 17 16 15 14 12 12 20 19 18 17 15
12 10 16 18 19 16 11 8 9 8 7 8 13 16 6 12 6 13 13 18 15 14 12 8 8 11 10 10 9 10 12 13 11 12 11 12 8 15 15 12 17 18 22 20 7 6 8 7 7 16 14 16 17 12 13 14 15 11 3 6 5 5 10 3 2 6 6 10 4 4 8 9 8 4 8 12 14 14 14 14 15 15 12 16 18 20 20 19
10 10 10 14 7 18 9 4 9 9 8 10 11 10 9 14 15 18 17 18 17 16 12 9 7 8 12 13 13 12 11 12 11 12 10 9 12 15 20 12 13 18 20 22 16 6 5 8 6 8 16 13 14 12 13 10 10 13 9 7 7 5 7 9 6 3 2 3 4 7 7 4 6 4 7 10 13 13 14 15 16 17 14 16 15 17 19 18
9 7 8 9 9 19 19 13 5 6 8 15 11 12 7 13 11 12 14 14 13 9 9 12 11 13 15 14 15 11 12 14 13 12 13 6 13 13 18 19 10 16 19 24 16 13 8 4 6 4 9 13 13 11 11 11 12 11 11 13 6 4 2 8 6 9 6 4 4 2 6 5 4 5 7 8 12 15 17 15 16 18 15 19 18 18 17 18
8 6 10 12 11 18 18 11 7 9 10 11 14 14 14 12 11 13 17 17 14 12 15 15 13 13 12 14 18 14 11 15 12 11 11 11 11 6 15 13 16 13 17 20 21 12 9 7 7 4 8 10 10 11 15 14 13 12 13 14 13 10 5 10 11 8 10 7 5 6 8 2 5 8 7 10 13 15 16 16 15 13 13 16 16 20 19 18
9 8 11 18 21 18 13 9 5 5 8 12 11 10 11 11 14 17 17 18 20 15 13 14 17 15 14 15 14 16 11 13 14 15 7 11 11 12 5 19 16 19 11 14 15 14 9 3 6 9 10 8 7 14 18 17 15 14 14 13 14 7 6 4 5 5 6 9 5 4 5 8 5 3 7 8 8 14 11 11 11 11 12 14 14 18 22 23
7 12 17 22 21 16 10 8 8 8 10 11 14 19 19 17 16 13 17 16 15 13 13 14 14 15 15 13 15 15 15 12 15 13 15 11 11 15 10 13 16 19 20 8 15 14 14 7 7 9 6 12 14 7 18 20 18 15 14 14 12 13 9 7 3 3 3 3 8 4 9 5 5 7 6 5 5 8 13 19 16 14 15 15 10 16 15 14
9 12 15 14 12 10 6 6 6 8 9 12 15 18 15 17 16 15 13 14 12 10 13 12 15 15 17 16 15 17 14 11 12 14 14 10 9 12 13 22 13 11 16 8 8 13 9 9 6 4 6 5 10 7 11 17 16 12 10 12 15 12 12 11 7 2 7 8 5 7 10 6 4 4 6 7 4 6 10 10 13 11 10 11 14 12 18 17
9 10 12 12 10 7 9 7 9 9 12 14 15 17 15 13 10 14 13 13 13 11 11 11 15 18 16 14 17 17 17 14 14 17 16 17 13 14 17 11 21 19 11 13 16 10 15 8 12 9 12 14 13 13 10 15 16 9 7 11 17 19 15 10 12 6 5 7 13 6 5 6 7 13 12 6 5 2 3 9 11 12 11 15 16 12 20 20
6 9 7 9 9 8 8 8 11 11 12 12 12 10 12 12 13 15 15 15 13 13 11 14 10 18 14 18 15 15 15 15 15 13 10 11 10 7 14 30 23 15 19 16 19 11 7 8 14 15 12 10 10 4 2 1 10 14 16 14 12 18 16 12 5 6 11 3 7 10 10 3 4 7 18 11 5 5 6 3 14 8 6 8 4 9 16 16
5 6 7 9 10 6 7 10 10 10 8 9 7 9 15 15 13 15 12 9 10 12 13 8 12 13 14 17 17 15 12 19 15 15 15 16 17 15 25 7 15 17 29 25 14 11 5 9 14 18 18 11 5 7 8 8 7 15 16 19 16 12 16 17 12 15 6 1 7 4 6 13 13 9 6 7 7 7 5 4 7 7 6 8 10 12 15 13
5 4 9 5 4 10 13 9 12 13 16 14 10 10 14 14 13 11 13 9 10 10 9 8 8 11 14 15 16 12 18 15 9 15 20 16 20 21 20 18 11 17 27 21 9 10 7 8 12 15 19 21 17 9 10 15 13 9 16 15 19 18 12 16 16 13 7 8 12 6 2 4 9 13 13 8 6 7 10 10 9 8 8 7 7 14 18 19
7 8 9 11 9 9 10 14 18 17 17 14 8 11 15 15 14 12 8 13 12 7 4 11 12 12 15 15 11 8 9 12 10 15 12 19 18 19 14 26 11 18 17 20 15 3 2 5 6 14 14 16 19 21 18 14 13 12 13 16 14 19 22 18 11 10 12 7 9 12 7 9 6 6 5 6 7 7 3 3 6 6 10 13 8 9 14 14
6 5 5 5 5 10 13 12 11 12 12 12 9 8 12 13 16 13 11 7 9 9 5 11 14 13 13 10 9 9 12 13 15 17 17 17 19 6 14 8 13 17 18 14 12 15 11 3 11 3 6 14 19 17 20 20 16 13 10 13 18 17 18 20 17 11 9 11 10 8 9 13 9 6 6 3 4 1 5 1 1 1 13 14 13 12 11 12
5 5 3 6 10 7 8 9 10 9 9 10 8 9 10 13 16 16 14 9 11 13 9 9 10 14 8 10 11 12 13 15 15 16 17 15 13 14 9 8 15 19 21 17 10 15 15 3 2 3 2 3 10 21 22 17 18 18 17 13 16 18 15 14 15 14 12 7 5 6 7 9 8 6 6 7 3 3 4 5 6 2 1 11 13 12 14 16
6 1 1 2 5 7 8 9 10 9 9 6 9 11 9 11 13 13 14 8 8 10 12 9 8 8 9 9 11 13 15 17 16 16 16 15 14 17 16 17 15 15 14 15 14 12 11 5 6 5 2 3 3 3 13 20 15 17 22 22 9 7 11 6 10 17 17 12 11 8 8 5 8 5 4 6 7 5 5 5 4 5 8 9 10 12 9 12
Wind_Direction
355 354 352 350 349 347 344 342 340 338 336 335 333 332 331 330 329 327 326 325 322 322 321 321 321 322 324 325 327 326 325 315 309 279 226 239 229 223 199 175 167 190 178 167 204 172 193 205 211 218 196 201 215 230 206 213 240 133 113 146 268 231 276 268 262 48 142 121 155 163 136 102 103 124 121 128 138 138 150 137 126 129 133 130 134 141 140 139
354 353 351 350 348 343 341 340 337 335 335 333 331 330 329 329 326 324 323 322 322 321 320 320 321 321 324 326 326 325 326 293 280 265 237 252 215 223 221 188 167 180 168 196 202 188 187 199 207 208 214 208 210 227 190 209 199 153 201 194 245 225 230 266 296 295 147 139 175 133 136 138 136 139 155 141 143 135 145 146 142 128 120 126 137 142 143 151
353 352 351 348 345 341 339 337 335 334 333 330 327 327 327 325 323 321 320 320 320 318 318 319 319 320 322 326 324 324 326 297 274 258 260 248 229 214 211 190 174 170 174 186 207 196 196 196 199 202 208 235 208 228 196 205 181 201 196 231 239 250 275 242 263 62 26 156 115 155 153 120 136 160 173 148 148 141 131 115 121 126 133 140 143 151 149 148
352 350 349 345 342 339 337 335 334 332 329 327 327 324 323 322 320 319 319 318 316 315 317 317 317 320 321 322 326 319 290 268 262 256 268 288 189 193 183 175 176 175 190 210 207 215 202 203 205 204 203 219 236 232 211 182 155 173 202 223 235 231 258 262 268 163 152 177 149 133 116 122 178 167 166 143 141 150 132 137 139 142 142 142 148 144 149 153
350 348 345 343 340 338 336 334 332 329 326 325 324 322 320 319 318 316 316 315 313 313 314 314 318 320 321 317 321 317 297 331 274 124 304 134 140 159 171 175 174 179 191 207 248 247 222 211 203 202 220 224 232 235 220 175 182 173 221 227 232 240 257 262 228 172 185 77 118 130 155 150 150 163 152 162 160 170 150 148 142 143 146 147 148 149 152 156
348 346 343 341 339 337 335 333 329 327 325 323 323 321 318 316 315 315 314 312 311 310 310 314 318 321 318 315 306 291 285 316 19 17 168 149 154 165 170 171 173 176 184 214 221 234 237 221 209 201 206 234 225 228 218 184 179 233 225 235 231 237 266 283 292 204 139 145 179 161 150 129 159 194 162 182 178 159 138 145 144 145 149 149 147 149 154 159
347 345 341 339 337 335 334 331 329 326 323 323 321 319 317 315 313 314 313 309 308 308 310 313 317 321 318 306 267 230 243 252 293 220 174 159 163 152 147 153 157 170 184 199 219 226 228 228 212 210 211 219 234 246 243 183 184 205 226 210 225 216 226 248 243 108 142 162 176 97 126 161 132 197 178 185 186 129 134 142 143 143 147 151 154 155 157 160
345 342 339 337 336 334 333 332 329 325 323 321 319 316 314 313 313 309 308 307 306 307 308 310 316 319 325 322 229 237 205 255 244 231 188 176 148 133 132 145 172 176 187 202 200 217 229 226 210 215 231 221 219 231 241 243 182 200 227 195 211 216 221 260 283 134 192 190 147 130 157 170 169 152 303 110 111 124 135 138 138 146 150 157 157 158 159 162
343 340 338 336 335 334 333 330 327 325 322 319 317 316 313 312 308 307 306 305 306 303 305 310 316 313 311 296 267 289 257 235 245 199 170 166 163 141 155 154 190 173 196 206 213 220 220 234 225 208 221 232 244 243 237 235 210 206 213 191 196 211 205 192 246 205 182 165 160 135 177 147 170 126 199 117 116 130 136 140 144 147 152 157 163 160 162 165
342 341 338 337 336 334 330 328 325 324 322 319 318 314 312 308 306 304 304 304 301 302 304 308 311 307 290 251 258 238 250 259 198 157 155 166 146 148 202 183 168 190 195 208 212 223 222 226 227 205 240 251 236 242 247 226 234 220 226 186 199 193 174 206 233 242 162 164 164 156 151 153 126 138 128 121 125 126 131 140 145 147 154 160 165 166 166 170
341 340 337 335 334 331 328 325 323 322 321 319 316 313 311 309 306 304 303 300 298 298 303 304 299 284 241 214 218 244 264 299 139 157 171 163 157 166 198 215 173 182 210 211 218 218 234 248 230 229 228 245 273 270 276 280 294 277 260 208 207 195 191 196 186 240 173 184 153 170 151 127 151 162 177 135 128 131 135 142 150 151 156 164 169 167 165 177
340 338 335 334 332 329 326 325 323 321 319 316 313 311 309 308 305 302 299 297 295 293 297 299 294 259 265 260 224 228 290 316 21 172 193 185 171 184 192 207 170 196 198 220 215 225 234 247 258 248 236 162 256 290 271 277 284 286 283 261 214 194 196 183 177 196 168 214 155 168 134 166 147 211 156 135 136 136 140 146 152 156 157 163 173 163 168 183
339 337 333 333 331 329 326 324 322 321 317 313 309 307 306 303 303 302 300 298 288 288 290 286 273 244 266 255 233 239 266 277 287 283 256 217 192 186 192 212 189 193 207 225 212 219 238 244 258 271 262 267 232 231 329 271 262 286 297 256 272 282 235 180 180 190 173 177 165 138 169 202 180 208 151 144 139 139 143 151 156 158 161 164 168 172 171 186
337 336 335 334 332 329 326 323 322 320 316 312 310 305 300 300 299 296 295 286 284 283 276 260 241 249 234 248 286 243 234 236 253 261 263 267 227 187 190 212 236 194 202 229 241 219 219 231 252 258 284 261 260 308 285 292 295 273 272 259 211 23 272 198 190 175 206 163 165 142 148 206 191 183 140 148 143 144 146 151 157 159 162 165 168 169 177 194
336 335 335 333 331 327 325 323 321 319 315 314 311 306 302 298 293 290 288 285 273 258 249 219 223 228 216 265 249 250 243 245 254 251 244 241 247 208 185 186 224 246 206 205 228 245 263 235 220 245 241 257 275 287 291 306 309 302 299 294 307 240 268 247 188 176 206 159 155 142 141 182 202 162 152 151 149 143 148 153 161 162 162 165 164 166 174 195
336 335 332 332 328 326 323 323 321 318 318 315 315 308 304 298 290 284 280 273 275 260 187 197 202 216 303 291 263 278 239 191 228 232 237 249 234 237 181 187 192 220 248 263 256 265 246 269 232 205 242 246 246 240 275 301 282 258 252 261 238 200 238 258 181 189 192 156 145 148 161 152 177 258 156 158 156 148 152 157 162 164 163 164 160 168 176 186
336 334 331 328 327 325 324 322 320 319 319 317 315 311 305 293 282 273 264 243 227 199 198 203 142 184 282 234 350 322 243 207 211 196 221 226 239 237 209 187 193 204 200 233 232 228 245 242 224 243 212 225 205 218 232 251 264 272 242 253 248 214 227 261 170 195 177 149 148 157 142 168 164 203 166 165 162 153 154 160 162 163 165 165 159 170 175 183
333 331 329 325 325 325 324 322 321 320 321 318 316 307 299 294 292 321 160 177 210 201 224 256 277 255 259 245 273 247 240 257 183 208 198 201 213 226 220 198 199 204 195 211 221 229 205 235 206 230 206 211 210 202 196 213 218 238 243 241 246 251 243 224 191 178 152 159 152 173 151 176 170 192 171 171 163 160 160 161 162 166 165 165 163 171 173 181
330 330 327 325 324 324 324 323 320 321 323 318 311 301 278 298 46 201 144 155 152 128 216 187 188 154 243 161 223 255 255 238 201 194 198 194 184 217 202 219 199 190 200 196 186 215 173 243 202 236 225 200 209 210 208 214 219 234 240 225 226 244 237 251 199 175 152 167 158 166 174 178 165 183 175 171 163 163 166 163 163 166 164 168 165 169 172 181
331 328 330 326 324 325 324 322 319 319 327 326 338 335 329 316 256 89 213 197 232 246 278 273 203 239 286 294 287 274 264 208 233 183 185 182 158 209 217 205 203 191 197 194 187 198 169 200 215 215 219 217 207 220 221 218 238 243 245 254 232 218 240 249 234 181 159 160 170 163 165 183 169 182 178 165 160 166 164 169 169 164 164 170 170 169 174 178
331 332 330 327 326 324 324 323 319 317 323 314 301 309 351 350 358 335 324 270 247 243 244 255 235 233 244 270 276 283 311 224 205 167 218 152 200 167 205 208 201 192 206 190 215 168 214 214 219 220 219 230 222 209 227 238 232 242 253 258 264 255 243 239 262 164 165 152 181 156 164 178 163 193 174 162 160 172 171 172 174 167 165 170 173 174 175 181
332 331 330 329 327 325 324 323 319 315 320 284 261 289 286 324 73 312 335 299 258 245 255 249 251 253 240 246 258 268 285 284 237 188 193 160 187 184 149 204 202 214 181 212 207 196 203 223 214 215 220 224 242 217 211 229 234 235 245 254 271 269 278 280 236 161 165 170 171 164 171 178 168 184 170 164 167 174 175 175 176 171 166 172 175 176 171 174
333 331 331 330 328 325 325 320 319 314 307 301 297 296 291 297 350 348 328 281 283 236 237 238 242 245 242 235 246 246 251 253 240 206 197 175 173 200 156 186 204 215 198 203 213 207 213 217 215 210 214 221 223 238 220 216 230 238 239 241 249 262 270 275 267 164 166 168 154 170 169 181 164 170 176 177 174 176 177 179 178 174 171 171 176 176 170 175
330 331 330 331 328 326 325 320 312 299 333 312 287 268 280 341 343 2 324 287 293 283 215 226 213 224 228 206 214 220 225 243 238 227 188 178 208 170 224 183 196 207 217 202 215 225 227 179 193 222 217 216 223 222 233 213 214 228 242 238 242 249 250 256 266 223 163 175 152 160 169 179 163 170 188 214 185 170 179 183 182 175 175 173 176 177 173 173
331 330 331 329 332 328 325 317 326 359 322 318 309 353 354 341 344 6 328 288 234 265 191 240 206 221 222 203 187 191 214 236 240 239 197 183 193 203 211 209 205 209 216 216 209 225 238 231 184 204 221 221 221 223 220 224 223 223 226 239 246 246 251 260 274 265 159 176 179 141 158 236 186 174 183 194 181 184 176 181 187 181 174 170 174 176 178 176
327 327 328 329 329 338 320 313 36 348 325 285 359 344 344 332 342 340 315 289 282 277 155 226 149 238 154 190 185 201 181 230 222 225 234 188 196 209 174 224 201 214 204 221 221 220 226 227 234 201 205 215 221 226 215 215 235 224 217 222 240 254 263 271 263 265 142 183 237 174 156 247 186 183 185 190 191 191 195 188 188 182 176 172 174 176 179 180
326 324 326 328 330 345 352 321 339 325 330 332 345 335 330 324 330 325 326 229 278 209 197 130 165 352 176 170 171 157 185 234 188 213 229 189 194 183 231 203 195 236 214 202 221 227 199 210 227 236 205 208 215 220 216 214 222 236 220 213 225 238 254 257 263 264 238 200 173 191 156 150 205 208 186 183 189 193 204 206 193 180 183 178 175 177 180 182
322 321 323 325 326 339 269 282 312 307 266 273 312 318 308 311 323 291 157 338 275 143 132 172 251 79 258 150 170 182 196 110 169 202 212 192 190 172 221 208 207 206 215 207 225 202 215 204 212 224 231 208 211 207 211 218 223 227 231 224 217 225 238 250 259 266 256 167 245 194 152 151 195 245 194 168 182 190 203 206 201 186 183 182 177 172 178 183
319 320 320 323 323 310 283 211 272 271 258 304 307 299 309 314 305 337 281 253 303 322 2 165 307 167 188 156 180 202 223 191 193 174 189 205 202 205 194 226 231 215 213 227 241 222 212 237 201 219 227 228 206 196 208 210 225 222 238 236 238 227 227 237 242 249 263 253 229 202 168 181 225 193 189 188 183 195 201 203 194 185 184 180 185 182 174 182
319 318 317 320 324 313 316 286 252 257 277 287 292 313 310 303 268 218 199 259 224 252 181 64 199 191 185 167 190 195 212 223 247 142 175 194 191 215 227 196 232 248 235 215 235 243 252 205 230 212 219 226 209 204 200 211 224 228 220 244 242 243 236 223 231 221 272 247 229 200 185 181 215 203 183 182 198 181 180 193 198 190 185 187 184 186 184 178
319 316 311 317 298 304 309 286 264 252 271 313 317 311 303 271 229 197 231 237 305 252 102 132 192 159 187 184 191 193 210 217 220 198 178 187 188 194 205 194 212 247 251 257 224 226 240 258 239 221 213 210 227 218 198 207 207 214 223 223 252 263 265 262 249 206 225 250 221 199 216 186 212 239 196 194 172 175 167 183 189 195 200 195 189 190 190 185
319 316 309 308 272 267 240 250 276 332 322 311 317 310 313 249 219 213 221 118 252 179 184 196 199 180 192 200 200 177 195 207 227 209 185 184 191 185 198 211 171 201 229 219 237 222 227 230 242 263 211 220 203 234 205 194 208 208 213 217 208 231 191 244 236 227 221 221 212 222 244 241 216 197 183 185 174 179 181 182 187 192 196 197 197 193 187 184
318 316 309 294 271 223 227 239 274 280 301 294 292 303 252 210 240 204 257 282 241 18 97 204 194 191 196 202 211 193 193 207 200 233 190 182 206 201 198 211 181 198 207 210 239 225 233 225 233 233 252 205 226 201 187 197 197 214 205 200 197 210 217 225 230 240 253 247 215 226 209 245 207 223 180 185 185 182 188 187 190 193 193 194 191 192 188 184
318 315 309 278 260 251 252 243 244 249 269 285 279 265 239 233 246 139 218 226 273 308 313 301 324 277 206 206 206 200 193 209 193 215 210 180 198 200 198 204 217 192 228 194 217 213 234 213 218 217 223 186 210 222 179 201 179 213 212 202 203 202 203 215 193 201 221 229 228 214 229 193 203 228 183 185 187 191 192 192 190 191 194 193 193 187 188 190
316 305 281 286 275 255 239 228 239 236 244 268 254 230 213 229 336 239 218 212 231 275 281 293 290 288 253 218 202 206 218 190 206 209 212 197 192 210 187 195 204 225 186 237 202 216 230 245 201 211 237 193 200 202 216 217 241 199 207 212 219 221 177 213 180 218 227 207 229 214 224 155 210 202 183 185 182 184 180 188 197 195 190 193 193 187 187 189
313 309 305 274 278 264 249 237 210 213 223 233 233 223 226 189 212 184 275 295 263 287 333 325 303 266 269 266 195 215 193 245 183 218 212 204 202 203 201 188 198 202 206 207 175 218 210 229 201 193 213 233 200 180 207 211 221 190 184 215 223 179 224 264 284 252 278 265 241 205 229 237 266 236 188 183 187 191 183 185 191 195 186 187 190 190 189 186
320 314 315 303 284 267 258 254 231 187 212 231 230 241 255 266 266 296 310 305 313 322 315 315 298 304 247 245 252 200 194 202 208 196 219 190 212 210 198 210 188 197 218 201 220 244 195 220 207 212 200 217 225 191 200 210 221 140 208 221 249 204 253 208 206 222 242 208 244 212 229 260 186 246 215 187 189 189 192 197 199 201 177 176 184 186 186 185
312 295 280 274 265 270 246 241 229 187 213 224 239 251 299 275 261 266 294 301 310 333 330 301 302 305 291 277 242 239 184 202 189 205 223 193 241 185 207 210 196 200 202 217 242 207 229 282 213 213 210 199 215 216 212 217 206 228 214 123 202 167 230 208 215 223 206 233 247 232 233 228 180 237 189 192 180 181 189 196 199 209 179 173 179 181 181 181
287 290 298 278 329 3 351 205 217 185 207 234 245 275 247 257 273 285 290 294 291 293 290 281 283 288 301 301 307 276 236 208 195 212 217 190 229 173 204 195 201 200 191 204 222 237 197 234 264 234 211 179 197 200 218 195 203 225 251 258 204 205 196 211 207 246 161 245 222 252 242 237 198 198 192 180 174 173 181 188 201 209 184 177 174 177 181 182
326 329 279 274 346 4 346 321 231 219 234 244 251 250 292 285 279 266 263 267 282 276 271 290 274 278 282 288 289 291 292 271 204 215 221 159 218 170 203 186 211 194 193 195 214 208 247 209 254 256 226 169 202 189 200 175 187 198 214 233 226 244 146 193 202 216 191 204 191 193 241 232 255 202 191 205 188 185 190 193 192 202 186 181 170 178 183 182
321 292 280 282 349 355 332 337 259 224 239 252 258 273 278 281 290 280 285 284 281 273 279 276 277 268 286 302 295 304 310 305 288 225 208 215 203 205 192 197 192 214 191 196 203 197 221 215 238 269 262 223 205 179 185 184 189 199 202 218 223 211 221 190 219 199 215 206 207 213 238 281 246 191 202 201 205 198 193 187 187 183 175 186 177 174 178 185
305 287 263 307 326 333 330 309 283 262 250 248 249 247 256 254 255 259 262 267 270 274 283 282 282 283 278 268 275 288 283 283 288 295 221 226 198 224 178 197 186 199 209 200 202 191 207 200 218 237 249 247 228 182 185 182 189 200 194 218 223 215 215 219 206 251 204 227 227 222 279 255 256 249 208 223 184 206 193 171 177 191 184 184 188 188 182 184
293 274 291 297 297 308 302 279 267 267 256 253 256 251 252 253 260 268 284 288 284 280 281 270 267 279 274 279 283 277 274 272 277 277 304 285 241 206 213 214 193 192 203 218 197 193 185 214 206 242 278 273 265 230 182 183 186 201 204 203 211 221 215 230 217 184 197 191 203 190 230 243 220 246 240 218 192 191 180 171 184 186 191 196 180 182 183 188
300 300 300 282 280 273 279 263 272 258 258 263 264 274 279 284 296 303 280 278 272 270 267 277 285 264 274 274 278 278 281 282 274 279 278 292 299 319 227 214 228 215 190 188 226 159 205 193 205 164 234 269 279 272 201 183 187 200 203 192 206 219 214 228 249 153 226 206 194 160 236 228 236 221 271 240 213 158 173 195 176 177 188 195 207 168 179 183
298 277 257 282 298 263 253 250 260 269 275 281 287 280 273 259 250 268 296 304 313 304 313 300 303 301 275 284 281 278 270 261 291 281 276 278 288 293 309 268 218 236 222 181 203 156 203 169 185 203 199 205 217 214 199 187 190 188 209 196 192 209 213 206 228 219 216 231 211 221 238 238 206 194 239 241 225 218 167 187 197 186 187 188 198 160 177 183
305 308 305 311 300 319 298 284 263 265 265 280 289 297 313 313 323 322 319 305 306 317 328 314 331 3 349 3 358 339 319 314 283 278 263 282 285 291 350 341 333 307 271 237 190 179 206 179 188 201 205 211 229 251 283 184 175 197 195 210 201 197 212 217 209 222 222 216 215 224 216 258 276 208 204 226 210 205 222 189 192 203 188 189 149 150 176 173
299 271 302 317 324 311 311 328 328 350 342 343 303 324 310 315 315 306 311 298 319 334 328 342 2 359 348 359 352 317 322 341 346 2 355 341 325 330 331 323 336 327 322 292 218 211 185 201 195 196 207 213 206 236 243 245 224 197 192 198 212 211 200 211 207 226 210 135 267 252 224 229 235 254 267 247 203 206 218 178 140 143 153 171 163 157 167 173
266 274 292 338 302 299 310 315 329 321 314 315 297 286 282 296 303 299 312 287 321 335 333 319 338 351 355 345 331 328 334 331 349 354 343 351 337 345 331 329 333 345 352 320 213 204 180 203 196 195 206 212 222 241 235 240 247 216 195 191 197 213 225 211 219 222 200 215 230 239 206 208 243 244 246 226 240 221 192 188 184 174 138 127 149 158 166 172
269 285 284 291 286 302 299 301 306 305 303 303 308 316 295 280 282 287 297 307 301 289 288 288 303 351 344 341 336 314 342 342 342 342 349 333 334 332 334 333 352 10 350 339 306 277 135 203 185 195 200 206 221 229 239 247 248 245 203 194 196 200 213 231 233 220 215 212 230 237 210 223 224 247 231 218 202 219 227 204 153 113 121 136 137 155 161 167
274 280 293 323 294 286 292 296 294 300 302 303 296 277 281 290 288 287 280 282 298 298 337 291 303 329 331 339 336 320 324 322 329 324 322 324 311 346 316 260 321 333 341 322 316 295 233 204 190 186 214 200 200 220 240 239 252 257 249 209 202 203 208 212 227 242 232 237 229 223 229 243 239 221 250 226 204 110 85 92 320 168 140 144 148 154 158 163
257 280 354 322 305 296 298 305 298 296 291 294 287 310 336 336 315 306 295 304 305 306 290 306 330 314 334 330 321 317 314 317 316 306 306 307 290 300 299 304 328 307 316 315 314 324 290 207 107 129 162 255 217 202 216 239 250 258 262 246 208 206 210 197 209 211 232 228 227 233 225 240 255 230 245 255 157 164 175 151 156 194 182 159 154 160 164 169
278 356 140 248 278 289 297 281 276 280 264 272 316 317 307 302 289 310 307 281 293 309 324 330 286 294 308 301 300 306 316 309 302 299 295 290 284 281 268 274 284 290 292 288 293 294 295 275 194 151 166 232 245 299 210 208 228 247 243 244 246 216 203 224 213 198 205 222 236 219 226 218 215 203 203 259 264 201 182 182 175 194 183 205 190 164 169 175